Regional Weather Roundup
Issued by NWS

Home | Current Version | Previous Version | Text Only | Print | Product List | Glossary Off
Versions: 1 2 3 4 5 6 7 8 9 10 11 12 13 14 15 16 17 18 19 20 21 22 23 24 25 26 27 28 29 30 31 32 33 34 35 36 37 38 39 40 41 42 43 44 45 46 47 48 49 50

000
ASUS43 KIND 180109
RWRIN

WEATHER ROUNDUP FOR INDIANA
NATIONAL WEATHER SERVICE INDIANAPOLIS IN
800 PM EST SAT FEB 17 2018

NOTE: "FAIR" INDICATES FEW OR NO CLOUDS BELOW 12,000 FEET WITH NO
SIGNIFICANT WEATHER AND/OR OBSTRUCTIONS TO VISIBILITY.

* - STATION DOES NOT REPORT WEATHER SUCH AS PRECIPITATION OR FOG.

+ - STATION NOT QUALITY CONTROLLED BY THE NATIONAL WEATHER SERVICE.
    USE DATA WITH CAUTION...ESPECIALLY DEWPOINT AND RELATIVE
    HUMIDITY OBSERVATIONS.

INZ001>003-010>013-019-020-180200-
NORTHWEST INDIANA

CITY           SKY/WX    TMP DP  RH WIND       PRES   REMARKS
GARY /AIRPORT/ CLOUDY    34  32  93 W14       30.02R WCI  24
KNOX *+        CLOUDY    32  32 100 SW10      29.99R WCI  24
LA PORTE +     LGT SNOW  32  31  96 W8        29.99R WCI  25
MICHIGAN CITY+ FLURRIES  32  32 100 SW7       30.00R WCI  26
MONTICELLO +   CLOUDY    33  32  96 W14G23    30.02R WCI  23
RENSSELAER +   CLOUDY    34  30  86 W18G25    30.03R WCI  23
VALPARAISO     CLOUDY    34  31  88 W16       30.00R WCI  24

$$

LMZ046-743>745-180200-
SOUTHERN LAKE MICHIGAN

STATION/POSITION TIME  TEMP    WIND        PRES    WAVE
                       AIR SEA DIR/SP/G            HT
                 (UTC) (F)     (DEG/KT/KT) (MB)    (FT)
BURNS HARBOR     0040   32     240/ 12/ 17 1015.9R
MICHIGAN CITY    0040   32     210/ 13/ 14   N/A

$$

INZ004-005-014>016-021>024-180200-
NORTH CENTRAL INDIANA

CITY           SKY/WX    TMP DP  RH WIND       PRES   REMARKS
GOSHEN         LGT SNOW  32  30  92 S10       29.97R FOG     WCI  24
LOGANSPORT +   LGT RAIN  32  32 100 W18       30.02R WCI  20
PERU/GRISSOM   FLURRIES  33  33 100 W16       30.00R WCI  22
ROCHESTER +    MIX PCPN  34  34 100 CALM      30.00S
SOUTH BEND     LGT SNOW  31  30  96 SW8       29.99R VSB 1   WCI  23
WARSAW +       LGT SNOW  32  32 100 S3        29.99R

$$

INZ006>009-017-018-025>027-180200-
NORTHEAST INDIANA

CITY           SKY/WX    TMP DP  RH WIND       PRES   REMARKS
AUBURN +       LGT SNOW  32  32 100 S3        29.99R VSB 1
FORT WAYNE     LGT SNOW  33  32  96 SW7       29.99S VSB 3/4 WCI  27
HUNTINGTON +   LGT SNOW  32  31  96 CALM      29.99S
KENDALLVILLE + LGT SNOW  31  31 100 S6        29.97R VSB 3/4 WCI  25

$$

INZ028-029-035-036-043>045-051>053-180200-
WEST CENTRAL INDIANA

CITY           SKY/WX    TMP DP  RH WIND       PRES   REMARKS
CRAWFORDSVL +  CLOUDY    33  33 100 W21G30    30.06R WCI  20
GREENCASTLE +  CLOUDY    34  34 100 W9G16     30.07R FOG     WCI  26
LAFAYETTE      CLOUDY    33  33 100 W16G25    30.04R WCI  23
TERRE HAUTE    CLOUDY    38  35  89 W12G20    30.11R WCI  30

$$

INZ030>032-037>040-046>048-054>057-064-065-180200-
CENTRAL INDIANA

CITY           SKY/WX    TMP DP  RH WIND       PRES   REMARKS
FRANKFORT +    LGT SNOW  36  34  94 W18       30.05R WCI  25
GREENWOOD *+   CLOUDY   N/A N/A N/A SW7       30.06R
INDIANAPOLIS   CLOUDY    34  33  96 SW16      30.06R FOG     WCI  24
-EAGLE CREEK   CLOUDY    35  32  88 W9        30.04R WCI  28
KOKOMO +       LGT RAIN  33  32  96 SW15      30.02R WCI  23
MARION +       CLOUDY    32  32 100 SW12      30.01R FOG     WCI  23
MT COMFORT *+  CLOUDY    32  32 100 SW6       30.05R WCI  26
SHELBYVILLE    CLOUDY    34  31  88 SW8       30.05R FOG     WCI  27
ZIONSVILLE +   LGT RAIN  33  32  99 W14G20    30.04R WCI  23

$$

INZ033-034-041-042-049-050-058-059-180200-
EAST CENTRAL INDIANA

CITY           SKY/WX    TMP DP  RH WIND       PRES   REMARKS
MUNCIE         LGT SNOW  35  32  88 SW10      30.01R FOG     WCI  27
RICHMOND +     LGT SNOW  32  32 100 SW8       30.02F WCI  25

$$

INZ060-061-067>069-081>083-085>088-180200-
SOUTHWEST INDIANA

CITY           SKY/WX    TMP DP  RH WIND       PRES   REMARKS
EVANSVILLE     CLOUDY    40  39  97 W7        30.16R WCI  35
HUNTINGBURG +  LGT RAIN  38  37  97 W10       30.15R FOG     WCI  31
WASHINGTON +   CLOUDY    38  37  94 W12       30.13R WCI  31

$$

INZ062-063-066-070>080-084-089>092-180200-
SOUTH CENTRAL AND SOUTHEAST INDIANA

CITY           SKY/WX    TMP DP  RH WIND       PRES   REMARKS
BATESVILLE +   CLOUDY    34  34 100 MISG      30.05R FOG
BEDFORD +      DRIZZLE   36  34  93 W9        30.09  WCI  29
BLOOMINGTON    CLOUDY    37  35  92 W12G22    30.08R FOG     WCI  29
FRENCH LICK *+ CLOUDY    36 N/A N/A W8        30.11R WCI  29
MADISON *+     CLOUDY    36  34  93 SW6       30.10R WCI  31
NORTH VERNON + CLOUDY    34  32  93 S8        30.08R FOG     WCI  27
SEYMOUR +      CLOUDY    37  36  93 SW7       30.09R FOG     WCI  32

$$




USA.gov is the U.S. government's official web portal to all federal, state and local government web resources and services.